Location: Township of Marena
(38.1747°N, 99.6798°W)
Time: 03:14:51
(UTC+00:00)

H-2A R/B - Pass Details

Date: 26 October 2020
Orbit: 733 x 837 km, 98.2° (Epoch: 27 November)

Event Time Altitude Azimuth Distance (km) Brightness Sun altitude
Exits shadow 02:43:38 - 209° (SSW) 2,457 4.8 -35.3°
Reaches altitude 10° 02:43:48 10° 210° (SSW) 2,409 4.7 -35.3°
Maximum altitude 02:48:11 26° 266° (W) 1,595 4.1 -36.1°
Drops below altitude 10° 02:52:39 10° 321° (NW) 2,452 5.1 -37.0°
Sets 02:55:27 0° 334° (NNW) 3,395 5.8 -37.5°
